Flag for Germany Weather past 2 weeks in Darmstadt, Hesse, Germany

Now
70 °F

Scattered clouds.


Feels Like: 70 °F
Forecast: 51 / 68 °F
Wind: 7 mph from East

Location: Frankfurt-M-Flughafen Airport

Current Time: Sep 1, 2015 at 8:26:08 AM

Latest Report: Sep 1, 2015 at 7:50 AM


Visibility: N/A

Pressure: 29.80 "Hg

Humidity: 88%

Dew point: 66 °F

Location of DarmstadtLocation

Historic Weather in Darmstadt — Graph

°F

Darmstadt temperature yesterday

Maximum temperature yesterday: 93 °F (at 4:50 PM)
Minimum temperature yesterday: 66 °F (at 6:20 AM)
Average temperature yesterday: 79 °F

Past Weeks' High & Low Weather Summary

 TemperatureHumidityPressure
High93 °F (Aug 31, 4:50 PM)100% (Aug 19, 5:20 AM)30.27 "Hg (Aug 19, 5:20 AM)
Low50 °F (Aug 19, 4:50 AM)21% (Aug 22, 3:20 PM)29.68 "Hg (Aug 23, 5:20 PM)
Average68 °F67%30.00 "Hg
* Reported Aug 17 7:20 AM — Sep 1 7:20 AM, Darmstadt, Weather by CustomWeather, © 2015

Note: Actual official high and low records may vary slightly from our data, if they occured in-between our weather recording intervals... More about our weather records

Advertising

Darmstadt weather history for previous 24 hours

 ConditionsComfort  
Time TempWeatherWind HumidityBarometerVisibility
7:20 AM
Tue, Sep 1
66 °FPassing clouds.3 mph88%29.80 "HgN/A
6:50 AM66 °FPartly cloudy.2 mph94%29.80 "HgN/A
6:20 AM66 °FSprinkles. Partly cloudy.2 mph88%29.80 "HgN/A
5:50 AM66 °FSprinkles. Partly cloudy.3 mph88%29.80 "HgN/A
5:20 AM66 °FPartly cloudy.2 mph88%29.80 "HgN/A
4:50 AM66 °FClear.1 mph88%29.80 "Hg10 mi
4:20 AM68 °FClear.2 mph83%29.83 "Hg10 mi
3:50 AM66 °FClear.2 mph83%29.83 "Hg10 mi
3:20 AM68 °FClear.7 mph78%29.83 "Hg10 mi
2:50 AM72 °FClear.6 mph69%29.83 "Hg10 mi
2:20 AM70 °FPassing clouds.5 mph69%29.83 "HgN/A
1:50 AM72 °FPassing clouds.3 mph65%29.83 "HgN/A
1:20 AM70 °FClear.5 mph69%29.83 "Hg10 mi
12:50 AM70 °FPassing clouds.3 mph69%29.83 "HgN/A
12:20 AM70 °FClear.3 mph69%29.83 "Hg10 mi
11:20 PM
Mon, Aug 31
75 °FClear.6 mph54%29.80 "Hg10 mi
10:50 PM75 °FClear.7 mph57%29.80 "Hg10 mi
10:20 PM79 °FPassing clouds.9 mph45%29.80 "HgN/A
9:50 PM77 °FClear.6 mph47%29.80 "Hg10 mi
9:20 PM79 °FClear.6 mph45%29.80 "Hg10 mi
8:50 PM84 °FSunny.7 mph33%29.80 "Hg10 mi
8:20 PM86 °FSunny.12 mph29%29.80 "Hg10 mi
7:50 PM88 °FSunny.12 mph27%29.80 "Hg10 mi
7:20 PM90 °FPassing clouds.8 mph24%29.80 "HgN/A
6:50 PM91 °FSunny.14 mph23%29.80 "Hg10 mi
6:20 PM91 °FSunny.13 mph23%29.80 "Hg10 mi
5:50 PM91 °FSunny.14 mph21%29.80 "Hg10 mi
5:20 PM93 °FPassing clouds.15 mph21%29.80 "HgN/A
4:50 PM93 °FSunny.15 mph23%29.83 "Hg10 mi
4:20 PM91 °FPassing clouds.12 mph24%29.83 "HgN/A
3:50 PM91 °FPassing clouds.13 mph23%29.83 "HgN/A
3:20 PM91 °FPassing clouds.16 mph23%29.86 "HgN/A
2:50 PM91 °FPassing clouds.14 mph23%29.86 "HgN/A
2:20 PM91 °FPassing clouds.13 mph26%29.89 "HgN/A
1:50 PM88 °FPassing clouds.14 mph29%29.89 "HgN/A
1:20 PM88 °FPassing clouds.13 mph25%29.89 "HgN/A
12:50 PM88 °FPassing clouds.10 mph35%29.89 "HgN/A
12:20 PM86 °FPassing clouds.9 mph38%29.92 "HgN/A
11:50 AM82 °FPassing clouds.8 mph45%29.92 "HgN/A
11:20 AM81 °FPassing clouds.9 mph51%29.95 "HgN/A
10:50 AM81 °FSunny.8 mph48%29.95 "Hg10 mi
10:20 AM79 °FPassing clouds.7 mph58%29.95 "HgN/A
9:50 AM77 °FPassing clouds.7 mph65%29.95 "HgN/A
9:20 AM75 °FPassing clouds.7 mph74%29.95 "HgN/A
8:50 AM73 °FPassing clouds.3 mph78%29.95 "HgN/A
8:20 AM70 °FSunny.3 mph88%29.95 "Hg10 mi
Weather by CustomWeather, © 2015

See weather overviewHow to use our weather pages